This is the latest recevied weather packets stored in our database for station/object OK1TBM-13. If no packets are shown the sender has not sent any weather packets the latest 10 day(s).
| Time | Temp. | Humidity | Pressure | Rain* | Wind** | Luminosity | Snow |
|---|---|---|---|---|---|---|---|
| 1788514802 | 22.78° C | 69% | 1014.9 hPa | 0 mm | - | 258 W/m² | - |
| 1788514502 | 22.78° C | 69% | 1014.9 hPa | 0 mm | - | 327 W/m² | - |
| 1788514200 | 22.78° C | 69% | 1014.9 hPa | 0 mm | - | 316 W/m² | - |
| 1788513904 | 23.33° C | 70% | 1015.2 hPa | 0 mm | - | 327 W/m² | - |
| 1788513601 | 22.22° C | 68% | 1015.2 hPa | 0 mm | - | 274 W/m² | - |
| 1788513301 | 22.78° C | 73% | 1015.2 hPa | 0 mm | - | 675 W/m² | - |
| 1788513001 | 21.67° C | 76% | 1015.2 hPa | 0 mm | - | 351 W/m² | - |
| 1788512702 | 21.11° C | 78% | 1015.2 hPa | 0 mm | - | 309 W/m² | - |
| 1788512103 | 20.56° C | 82% | 1015.2 hPa | 0 mm | - | 315 W/m² | - |
| 1788511802 | 19.44° C | 83% | 1016.3 hPa | 0 mm | - | 223 W/m² | - |
| 1788511502 | 20° C | 81% | 1016.3 hPa | 0 mm | - | 236 W/m² | - |
| 1788511201 | 20.56° C | 76% | 1015.9 hPa | 0 mm | - | 135 W/m² | - |
| 1788510901 | 20.56° C | 73% | 1015.9 hPa | 0 mm | - | 100 W/m² | - |
| 1788510304 | 20.56° C | 74% | 1016.3 hPa | 0 mm | - | 120 W/m² | - |
| 1788510001 | 20.56° C | 74% | 1016.3 hPa | 0 mm | - | 92 W/m² | - |
| 1788509701 | 20.56° C | 73% | 1015.9 hPa | 0 mm | - | 87 W/m² | - |
| 1788509401 | 20.56° C | 73% | 1015.9 hPa | 0 mm | - | 177 W/m² | - |
| 1788509101 | 20.56° C | 74% | 1015.9 hPa | 0 mm | - | 150 W/m² | - |
| 1788508801 | 21.11° C | 73% | 1015.9 hPa | 0 mm | - | 159 W/m² | - |
| 1788508502 | 21.11° C | 71% | 1015.9 hPa | 0 mm | - | 180 W/m² | - |
| 1788508201 | 21.11° C | 72% | 1015.9 hPa | 0 mm | - | 279 W/m² | - |
| 1788507901 | 21.11° C | 72% | 1015.9 hPa | 0 mm | - | 234 W/m² | - |
| 1788507602 | 21.11° C | 73% | 1015.9 hPa | 0 mm | - | 223 W/m² | - |
| 1788507302 | 21.11° C | 75% | 1015.9 hPa | 0 mm | - | 196 W/m² | - |
| 1788505501 | 19.44° C | 79% | 1015.9 hPa | 0 mm | - | 159 W/m² | - |
* Rain latest hour (hover to see other rain measurements)
** Current wind speed in m/s (hover to see current wind gust speed)